This is the latest recevied weather packets stored in our database for station/object KO4DYK. If no packets are shown the sender has not sent any weather packets the latest 10 day(s).
| Time | Temp. | Humidity | Pressure | Rain* | Wind** | Luminosity | Snow |
|---|---|---|---|---|---|---|---|
| 1777956784 | 17.22° C | 71% | 1015.3 hPa | 0 mm | - | 0 W/m² | - |
| 1777956480 | 17.78° C | 71% | 1015.2 hPa | 0 mm | - | 0 W/m² | - |
| 1777956177 | 17.78° C | 69% | 1015.2 hPa | 0 mm | - | 0 W/m² | - |
| 1777955873 | 17.78° C | 69% | 1015.2 hPa | 0 mm | - | 0 W/m² | - |
| 1777955570 | 17.78° C | 68% | 1015.2 hPa | 0 mm | - | 0 W/m² | - |
| 1777955266 | 18.33° C | 67% | 1015.2 hPa | 0 mm | - | 0 W/m² | - |
| 1777954964 | 18.89° C | 66% | 1015.3 hPa | 0 mm | - | 0 W/m² | - |
| 1777954660 | 18.89° C | 65% | 1015.2 hPa | 0 mm | - | 0 W/m² | - |
| 1777954357 | 18.89° C | 64% | 1015.1 hPa | 0 mm | - | 0 W/m² | - |
| 1777954055 | 18.89° C | 64% | 1015.2 hPa | 0 mm | - | 0 W/m² | - |
| 1777953752 | 19.44° C | 64% | 1015.1 hPa | 0 mm | - | 0 W/m² | - |
| 1777953449 | 19.44° C | 63% | 1015.1 hPa | 0 mm | - | 0 W/m² | - |
| 1777953145 | 19.44° C | 62% | 1015.2 hPa | 0 mm | - | 0 W/m² | - |
| 1777952842 | 19.44° C | 62% | 1015.1 hPa | 0 mm | - | 0 W/m² | - |
| 1777952539 | 19.44° C | 62% | 1015.2 hPa | 0 mm | - | 0 W/m² | - |
| 1777952235 | 20° C | 61% | 1015.1 hPa | 0 mm | - | 0 W/m² | - |
| 1777951933 | 20° C | 61% | 1014.9 hPa | 0 mm | - | 0 W/m² | - |
| 1777951631 | 20° C | 61% | 1015 hPa | 0 mm | - | 0 W/m² | - |
| 1777951326 | 20° C | 61% | 1014.9 hPa | 0 mm | - | 0 W/m² | - |
| 1777951024 | 20° C | 61% | 1015 hPa | 0 mm | - | 0 W/m² | - |
| 1777950720 | 20° C | 60% | 1015 hPa | 0 mm | - | 0 W/m² | - |
| 1777950417 | 19.44° C | 61% | 1015 hPa | 0 mm | - | 0 W/m² | - |
| 1777950113 | 19.44° C | 62% | 1014.9 hPa | 0 mm | - | 0 W/m² | - |
| 1777949809 | 19.44° C | 62% | 1014.9 hPa | 0 mm | - | 0 W/m² | - |
| 1777949508 | 19.44° C | 62% | 1014.7 hPa | 0 mm | - | 0 W/m² | - |
* Rain latest hour (hover to see other rain measurements)
** Current wind speed in m/s (hover to see current wind gust speed)